sat.trackr.live / text

‹ back to catalog

COSMOS 2523

NORAD 42986 · 2017-037E

PAYLOAD ACTIVE UNKNOWN

§ Identity

Operator
Country
CIS
Launch date
2017-06-23
Launch site
PLMSC
Launch vehicle
Mass (kg)
RCS (m²)

External: N2YO · Heavens-Above · Gunter

§ Orbital elements

Epoch: 2026-09-20T04:59:08.438784Z

Period
96.28 min
Inclination
97.5014°
Eccentricity
0.0064855
Mean motion
14.95694165 rev/d
Perigee alt
535.1 km
Apogee alt
625.3 km
Semi-major
6,958.4 km
B*
2.2003e-5
RAAN
272.2651°
Arg perigee
271.0470°
Mean anomaly
88.3321°
Rev number
48,316

§ Raw data

COSMOS 25231 42986U 17037E   26263.20773656  .00000195  00000+0  22003-4 0  99972 42986  97.5014 272.2651 0064855 271.0470  88.3321 14.95694165483168

JSON: /api/v1/satellites/42986 · /tle

For live sub-satellite position, see the globe view (requires WebGL).

§ Visibility from observer

Set your observer location to see the next 7 days of passes ≥ 10°. The values pass through the URL so the page stays shareable.

No JS? Fill the form by hand. The geolocation button needs JavaScript.